#timestamp,LO_Frequency,Hit,StdDev 
1660140015.2,286046998.3,N
1660140035.0,286046998.2,N
1660140035.9,286046998.2,N
1660140055.8,286046999.9,N
1660140075.6,286046999.7,N
1660140095.4,286046999.9,N
1660140115.3,286047000.3,N
1660140135.1,286047001.0,N
1660140155.9,286047001.1,N
1660140175.7,286046998.5,N
1660140195.5,286046998.2,N
1660140215.4,286047001.2,N
1660140235.2,286046998.4,N
1660140255.0,286047001.1,N
1660140255.9,286047001.1,N
1660140275.8,286047001.1,N
1660140295.6,286047000.6,N
1660140315.5,286047000.0,N
1660140335.3,286047000.9,N
1660140355.1,286047000.6,N
1660140375.9,286047000.9,N
1660140395.7,286047000.5,N
1660140415.5,286046999.9,N
1660140435.4,286047002.7,N
1660140455.2,286046999.9,N
1660140475.1,286047000.3,N
1660140476.0,286047000.3,N
1660140495.8,286047000.3,N
1660140515.7,286046999.7,N
1660140535.5,286047002.8,N
1660140555.3,286047002.8,N
1660140575.2,286047000.8,N
1660140595.9,286047001.2,N
1660140615.7,286046998.5,N
1660140635.6,286046998.2,N
1660140655.4,286046998.6,N
1660140675.3,286046999.6,N
1660140695.1,286046996.5,N
1660140696.0,286046996.5,N
1660140715.8,286046997.3,N
1660140735.7,286046996.7,N
1660140755.5,286046997.3,N
1660140775.3,286046997.0,N
1660140795.2,286046997.1,N
1660140815.0,286046996.9,N
1660140815.9,286046996.9,N
1660140835.8,286046996.6,N
1660140855.6,286046997.0,N
1660140875.4,286046997.7,N
1660140895.3,286046995.0,N
1660140915.1,286046995.3,N
1660140935.8,286046997.6,N
1660140955.7,286046996.4,N
1660140975.5,286046993.4,Y
1660140995.4,286046997.3,P
1660141015.2,286046999.5,N
1660141035.0,286046999.4,N
1660141035.9,286046999.4,N
1660141055.8,286046996.7,Y
1660141075.6,286046998.5,P
1660141095.4,286046999.1,P
1660141115.3,286046999.0,P
1660141135.1,286046996.7,Y
1660141155.9,286046998.9,P
1660141175.7,286046998.7,P
1660141195.5,286047000.3,P
1660141215.4,286047000.7,N
1660141235.2,286047000.9,N
1660141255.1,286047000.8,N
1660141256.0,286047000.8,N
1660141275.8,286046999.4,N
1660141295.6,286046998.9,N
1660141315.5,286046999.6,N
1660141335.3,286046999.4,N
1660141355.1,286046999.4,N
1660141375.9,286046998.4,N
1660141395.7,286046998.3,N
1660141415.6,286046999.0,N
1660141435.4,286046998.6,N
1660141455.2,286046998.4,N
1660141475.1,286046998.2,N
1660141476.0,286046998.2,N
1660141495.8,286046998.9,N
1660141515.6,286047001.2,N
1660141535.5,286047000.8,N
1660141555.3,286047000.6,N
1660141575.2,286047000.6,N
1660141595.9,286047000.6,N
1660141615.7,286046999.0,N
1660141635.6,286046999.0,N
1660141655.4,286046998.5,N
1660141675.2,286046998.3,N
1660141695.1,286047000.8,N
1660141696.0,286047000.8,N
1660141715.8,286047000.0,N
1660141735.7,286047000.3,N
1660141755.5,286047000.0,N
1660141775.3,286046999.9,N
1660141795.2,286047000.2,N
1660141815.0,286047000.3,N
1660141815.9,286047000.3,N
1660141835.8,286047000.6,N
1660141855.6,286047001.0,N
1660141875.4,286047000.3,N
1660141895.3,286047000.6,N
1660141915.1,286047002.3,N
1660141935.9,286047002.4,N
1660141955.7,286047000.5,N
1660141975.5,286047000.4,N
1660141995.4,286047000.0,N
1660142015.2,286047000.2,N
1660142035.0,286047000.9,N
1660142035.9,286047000.9,N
1660142055.8,286046998.2,N
1660142075.6,286046999.0,N
1660142095.5,286046996.9,Y
1660142115.3,286046996.6,P
1660142135.1,286046999.2,N
1660142155.9,286046998.9,N
1660142175.7,286046996.6,N
1660142195.6,286046997.0,N
1660142215.4,286046997.4,N
1660142235.2,286046998.0,N
1660142255.1,286046998.0,N
1660142256.0,286046998.0,N
1660142275.8,286046997.4,N
1660142295.7,286046997.3,N
1660142315.5,286046997.3,N
1660142335.3,286046998.0,N
1660142355.2,286046997.4,N
1660142375.0,286046999.6,N
1660142375.9,286046999.6,N
1660142395.7,286046999.1,N
1660142415.6,286046999.4,N
1660142435.4,286046999.5,N
1660142455.3,286046997.7,N
1660142475.1,286046998.0,N
1660142495.8,286046995.7,Y
1660142515.7,286046997.6,P
1660142535.5,286046997.1,P
1660142555.4,286046999.6,N
1660142575.2,286046996.8,Y
1660142595.0,286046998.6,P
1660142595.9,286046998.6,P
1660142615.8,286046998.5,P
1660142635.6,286046998.2,Y
1660142655.5,286047000.4,P
1660142675.3,286047000.8,N
1660142695.1,286047000.6,N
1660142715.9,286047000.7,N
1660142735.7,286046998.6,N
1660142755.5,286046999.3,N
1660142775.4,286046998.8,N
1660142795.2,286046998.4,N
1660142815.1,286047001.1,N
1660142816.0,286047001.1,N
1660142835.8,286046998.2,N
1660142855.6,286046998.2,N
1660142875.5,286047000.8,N
1660142895.3,286046998.5,N
1660142915.1,286046999.0,N
1660142935.9,286046998.4,N
1660142955.7,286046999.3,N
1660142975.6,286046999.3,N
1660142995.4,286046998.8,N
1660143015.2,286046998.5,N
1660143035.1,286046998.1,N
1660143036.0,286046998.1,N
1660143055.8,286046998.7,N
1660143075.7,286047000.9,N
1660143095.5,286047001.0,N
1660143115.3,286047001.0,N
1660143135.2,286047001.0,N
1660143155.0,286046998.1,N
1660143155.9,286046998.1,N
1660143175.8,286047001.1,N
1660143195.6,286047001.2,N
1660143215.4,286047000.7,N
1660143235.3,286047001.1,N
1660143255.1,286046998.3,N
1660143275.8,286047000.8,N
1660143295.7,286047000.5,N
1660143315.5,286047000.4,N
1660143335.4,286047000.9,N
1660143355.2,286047002.7,N
1660143375.0,286047001.5,N
1660143375.9,286047001.5,N
1660143395.8,286047001.6,N
1660143415.6,286047001.8,N
1660143435.4,286047001.6,N
1660143455.3,286047000.1,N
1660143475.1,286046999.9,N
1660143495.9,286047000.9,N
1660143515.7,286047001.1,N
1660143535.5,286047000.8,N
1660143555.4,286046998.1,N
1660143575.2,286047001.2,N
1660143595.0,286047001.2,N
1660143595.9,286047001.2,N
